ZSMUL FLKK-FZSA

Flight info

Callsign ZSMUL
Flight time N/A
Altitude 12000
Route VLS DCT LUB DCT KMB
Aircraft DC6/M-SDFGRWY/S

Departure

Time 2026-04-30 14:26
Airport Kenneth Kaunda International Airport (FLKK)

Arrival

Time N/A
Airport Kamina Air Base (FZSA)
Time Latitude Longitude Altitude Speed Heading
2026-04-30 14:18 -15.41520 28.32394 4259 ft 0 kts 185°
2026-04-30 14:22 -15.41521 28.32393 4259 ft 0 kts 192°
2026-04-30 14:22 -15.41525 28.32391 4259 ft 1 kts 221°
2026-04-30 14:22 -15.41533 28.32380 4260 ft 3 kts 239°
2026-04-30 14:23 -15.41566 28.32318 4261 ft 8 kts 246°
2026-04-30 14:23 -15.41609 28.32187 4260 ft 9 kts 234°
2026-04-30 14:24 -15.41662 28.32203 4259 ft 7 kts 87°
2026-04-30 14:24 -15.41657 28.32226 4259 ft 0 kts 72°
2026-04-30 14:25 -15.41579 28.32474 4260 ft 56 kts 72°
2026-04-30 14:25 -15.41192 28.33693 4354 ft 110 kts 72°
2026-04-30 14:26 -15.40351 28.35144 4665 ft 128 kts 44°
2026-04-30 14:26 -15.39524 28.35650 4734 ft 146 kts 30°
2026-04-30 14:26 -15.37603 28.36672 5154 ft 162 kts 33°
2026-04-30 14:27 -15.36785 28.37463 5410 ft 160 kts 57°
2026-04-30 14:27 -15.36091 28.38364 5690 ft 160 kts 52°
2026-04-30 14:27 -15.35322 28.39232 5850 ft 167 kts 51°
2026-04-30 14:28 -15.33726 28.41049 6309 ft 174 kts 51°
2026-04-30 14:28 -15.32776 28.41841 6462 ft 182 kts 28°
2026-04-30 14:28 -15.31509 28.42011 6684 ft 192 kts 355°
2026-04-30 14:28 -15.30237 28.41563 6917 ft 193 kts 341°
2026-04-30 14:29 -15.27666 28.40809 7383 ft 192 kts 351°
2026-04-30 14:29 -15.25063 28.40163 7833 ft 194 kts 350°
2026-04-30 14:30 -15.21132 28.39180 8505 ft 194 kts 349°
2026-04-30 14:31 -15.18504 28.38527 8945 ft 193 kts 349°
2026-04-30 14:31 -15.15908 28.37877 9344 ft 192 kts 348°
2026-04-30 14:31 -15.14595 28.37552 9566 ft 193 kts 348°
2026-04-30 14:32 -15.12039 28.36913 9969 ft 195 kts 347°
2026-04-30 14:32 -15.10710 28.36582 10165 ft 196 kts 347°
2026-04-30 14:32 -15.09394 28.36254 10349 ft 196 kts 347°
2026-04-30 14:33 -15.08063 28.35922 10535 ft 196 kts 347°
2026-04-30 14:33 -15.05396 28.35259 10902 ft 196 kts 347°
2026-04-30 14:33 -15.04081 28.34929 11085 ft 196 kts 347°
2026-04-30 14:34 -15.02750 28.34599 11264 ft 196 kts 347°
2026-04-30 14:34 -15.01431 28.34271 11438 ft 196 kts 347°
2026-04-30 14:34 -15.00096 28.33938 11612 ft 196 kts 347°
2026-04-30 14:34 -14.98766 28.33606 11780 ft 196 kts 347°
2026-04-30 14:35 -14.96128 28.32950 12139 ft 197 kts 347°
2026-04-30 14:35 -14.94788 28.32618 12328 ft 198 kts 347°
2026-04-30 14:35 -14.93454 28.32284 12526 ft 199 kts 347°
2026-04-30 14:36 -14.92092 28.31947 12720 ft 200 kts 347°
2026-04-30 14:36 -14.90734 28.31608 12910 ft 200 kts 347°
2026-04-30 14:36 -14.89395 28.31274 13101 ft 200 kts 347°
2026-04-30 14:36 -14.88030 28.30935 13301 ft 200 kts 347°
2026-04-30 14:37 -14.86668 28.30597 13484 ft 200 kts 347°
2026-04-30 14:37 -14.85324 28.30262 13664 ft 200 kts 346°
2026-04-30 14:37 -14.83963 28.29924 13840 ft 200 kts 346°
2026-04-30 14:37 -14.82600 28.29584 14004 ft 201 kts 347°
2026-04-30 14:38 -14.81248 28.29250 14183 ft 202 kts 347°
2026-04-30 14:38 -14.79877 28.28909 14356 ft 202 kts 347°
2026-04-30 14:38 -14.78502 28.28566 14549 ft 202 kts 347°
2026-04-30 14:38 -14.77150 28.28231 14723 ft 202 kts 347°
2026-04-30 14:39 -14.75783 28.27890 14900 ft 201 kts 347°
2026-04-30 14:39 -14.74418 28.27551 15071 ft 201 kts 347°
2026-04-30 14:39 -14.73059 28.27215 15231 ft 200 kts 347°
2026-04-30 14:40 -14.70362 28.26544 15573 ft 199 kts 348°
2026-04-30 14:40 -14.69012 28.26209 15735 ft 198 kts 348°
2026-04-30 14:40 -14.67689 28.25880 15893 ft 198 kts 348°
2026-04-30 14:40 -14.66352 28.25549 16040 ft 197 kts 348°
2026-04-30 14:41 -14.65015 28.25215 16196 ft 197 kts 348°
2026-04-30 14:41 -14.63685 28.24886 16344 ft 196 kts 348°
2026-04-30 14:41 -14.62359 28.24558 16494 ft 195 kts 348°
2026-04-30 14:41 -14.61039 28.24232 16633 ft 195 kts 348°
2026-04-30 14:42 -14.59738 28.23906 16779 ft 194 kts 348°
2026-04-30 14:42 -14.58424 28.23581 16910 ft 194 kts 348°
2026-04-30 14:42 -14.57103 28.23254 17052 ft 195 kts 348°
2026-04-30 14:42 -14.55773 28.22923 17075 ft 203 kts 348°
2026-04-30 14:43 -14.54361 28.22575 17085 ft 211 kts 348°
2026-04-30 14:43 -14.52899 28.22214 17091 ft 218 kts 348°
2026-04-30 14:43 -14.51408 28.21842 17083 ft 221 kts 348°
2026-04-30 14:43 -14.49924 28.21474 17084 ft 221 kts 348°
2026-04-30 14:44 -14.48418 28.21100 17081 ft 223 kts 348°
2026-04-30 14:44 -14.46922 28.20731 17080 ft 224 kts 348°
2026-04-30 14:44 -14.45399 28.20353 17081 ft 225 kts 348°
2026-04-30 14:44 -14.43868 28.19972 17081 ft 225 kts 348°
2026-04-30 14:45 -14.42356 28.19598 17076 ft 226 kts 348°
2026-04-30 14:45 -14.40822 28.19219 17073 ft 227 kts 348°
2026-04-30 14:45 -14.39276 28.18837 17073 ft 228 kts 348°
2026-04-30 14:45 -14.37731 28.18454 17077 ft 228 kts 348°
2026-04-30 14:46 -14.36182 28.18070 17077 ft 228 kts 348°
2026-04-30 14:46 -14.34646 28.17691 17071 ft 229 kts 348°
2026-04-30 14:46 -14.33092 28.17305 17070 ft 230 kts 348°
2026-04-30 14:46 -14.31528 28.16918 17070 ft 230 kts 348°
2026-04-30 14:47 -14.29985 28.16538 17071 ft 231 kts 348°
2026-04-30 14:47 -14.28416 28.16149 17073 ft 231 kts 348°
2026-04-30 14:47 -14.26846 28.15760 17069 ft 232 kts 348°
2026-04-30 14:47 -14.25291 28.15375 17068 ft 232 kts 348°
2026-04-30 14:48 -14.23718 28.14987 17072 ft 232 kts 348°
2026-04-30 14:48 -14.22141 28.14597 17070 ft 232 kts 348°
2026-04-30 14:48 -14.20576 28.14210 17066 ft 233 kts 348°
2026-04-30 14:48 -14.18994 28.13819 17063 ft 233 kts 348°
2026-04-30 14:49 -14.17405 28.13426 17068 ft 233 kts 348°
2026-04-30 14:49 -14.15837 28.13039 17065 ft 233 kts 348°
2026-04-30 14:49 -14.14248 28.12647 17066 ft 234 kts 348°
2026-04-30 14:49 -14.12666 28.12255 17066 ft 234 kts 348°
2026-04-30 14:50 -14.09511 28.11476 17062 ft 234 kts 348°
2026-04-30 14:50 -14.07917 28.11083 17063 ft 234 kts 348°
2026-04-30 14:51 -14.04739 28.10299 17065 ft 234 kts 348°
2026-04-30 14:51 -14.03166 28.09911 17062 ft 234 kts 348°
2026-04-30 14:51 -13.99996 28.09128 17062 ft 235 kts 348°
2026-04-30 14:52 -13.98401 28.08733 17066 ft 235 kts 348°
2026-04-30 14:52 -13.95205 28.07947 17063 ft 235 kts 348°
2026-04-30 14:52 -13.93624 28.07556 17065 ft 236 kts 348°
2026-04-30 14:53 -13.90421 28.06767 17069 ft 236 kts 348°
2026-04-30 14:53 -13.88845 28.06378 17069 ft 236 kts 348°
2026-04-30 14:54 -13.85633 28.05587 17067 ft 236 kts 348°
2026-04-30 14:54 -13.82448 28.04802 17068 ft 236 kts 348°
2026-04-30 14:55 -13.79253 28.04015 17073 ft 236 kts 348°
2026-04-30 14:55 -13.77652 28.03621 17068 ft 236 kts 348°
2026-04-30 14:55 -13.74441 28.02831 17072 ft 236 kts 348°
2026-04-30 14:56 -13.71250 28.02043 17075 ft 236 kts 348°
2026-04-30 14:56 -13.68058 28.01262 17073 ft 237 kts 348°
2026-04-30 14:57 -13.66448 28.00863 17076 ft 237 kts 348°
2026-04-30 14:57 -13.63252 28.00078 17080 ft 237 kts 348°
2026-04-30 14:58 -13.60026 27.99284 17081 ft 237 kts 348°
2026-04-30 14:58 -13.58435 27.98893 17080 ft 237 kts 348°
2026-04-30 14:58 -13.55220 27.98103 17082 ft 238 kts 348°
2026-04-30 14:59 -13.51986 27.97308 17084 ft 238 kts 348°
2026-04-30 15:00 -13.47158 27.96123 17087 ft 239 kts 348°
2026-04-30 15:00 -13.43919 27.95326 17082 ft 239 kts 348°
2026-04-30 15:01 -13.40696 27.94537 17088 ft 239 kts 348°
2026-04-30 15:01 -13.39620 27.94272 17092 ft 239 kts 348°
2026-04-30 15:01 -13.35843 27.93345 17097 ft 238 kts 348°
2026-04-30 15:02 -13.34223 27.92948 17087 ft 239 kts 348°
2026-04-30 15:02 -13.32621 27.92556 17088 ft 238 kts 348°
2026-04-30 15:03 -13.27781 27.91368 17093 ft 239 kts 348°
2026-04-30 15:03 -13.24536 27.90572 17093 ft 239 kts 348°
2026-04-30 15:04 -13.21301 27.89780 17098 ft 240 kts 348°
2026-04-30 15:04 -13.16449 27.88591 17102 ft 240 kts 348°
2026-04-30 15:05 -13.11582 27.87399 17102 ft 240 kts 348°
2026-04-30 15:06 -13.08326 27.86601 17107 ft 240 kts 348°
2026-04-30 15:06 -13.05087 27.85810 17109 ft 240 kts 348°
2026-04-30 15:07 -13.01825 27.85011 17108 ft 240 kts 348°
2026-04-30 15:07 -12.98589 27.84220 17108 ft 240 kts 348°
2026-04-30 15:08 -12.95883 27.83558 17111 ft 240 kts 348°
2026-04-30 15:08 -12.90994 27.82362 17115 ft 240 kts 348°
2026-04-30 15:09 -12.87755 27.81572 17117 ft 240 kts 348°
2026-04-30 15:09 -12.84501 27.80776 17116 ft 240 kts 348°
2026-04-30 15:10 -12.81238 27.79981 17117 ft 241 kts 348°
2026-04-30 15:11 -12.74732 27.78390 17124 ft 241 kts 348°
2026-04-30 15:11 -12.71453 27.77591 17122 ft 241 kts 348°
2026-04-30 15:12 -12.66562 27.76396 17126 ft 241 kts 348°
2026-04-30 15:13 -12.63309 27.75604 17128 ft 241 kts 348°
2026-04-30 15:14 -12.56769 27.74010 17125 ft 241 kts 348°
2026-04-30 15:14 -12.51876 27.72817 17132 ft 241 kts 348°
2026-04-30 15:16 -12.43716 27.70831 17135 ft 241 kts 348°
2026-04-30 15:17 -12.37206 27.69244 17137 ft 241 kts 348°
2026-04-30 15:18 -12.29029 27.67255 17137 ft 241 kts 348°
2026-04-30 15:19 -12.24133 27.66066 17139 ft 242 kts 348°